Location: Kuffner-Sternwarte
(48.2130°N, 16.2960°E)
Time: 04:07:21
(UTC+02:00)

COROT - Visible Passes

Search period start: 22 May 2018 00:00
Search period end: 01 June 2018 00:00
Orbit: 599 x 890 km, 90.0° (Epoch: 21 May)

Date Brightness Start Highest point End Pass type
(mag) Time Alt. Az. Time Alt. Az. Time Alt. Az.
22 May 6.8 21:03:57 10° NNE 21:08:15 32° E 21:12:50 10° SSE visible
22 May 7.4 22:43:32 10° NNW 22:47:49 34° W 22:52:25 10° SW visible
23 May 6.1 22:00:05 10° N 22:04:54 76° W 22:10:07 10° S visible
23 May 8.7 23:42:42 10° NW 23:43:44 11° WNW 23:44:49 10° W visible
24 May 6.3 21:17:03 10° NNE 21:21:48 49° E 21:26:54 10° SSE visible
24 May 8.1 22:57:19 10° NNW 23:01:08 23° WNW 23:05:09 10° SW visible
25 May 6.9 22:13:34 10° N 22:18:18 49° W 22:23:24 10° SSW visible
26 May 6.0 21:30:20 10° N 21:35:18 77° E 21:40:40 10° S visible
26 May 8.6 23:11:23 10° NW 23:14:21 16° WNW 23:17:28 10° WSW visible
27 May 7.6 22:27:12 10° NNW 22:31:39 33° WNW 22:36:25 10° SW visible
28 May 6.4 21:43:44 10° N 21:48:46 71° W 21:54:10 10° SSW visible
28 May 8.9 23:26:20 10° NW 23:27:32 11° WNW 23:28:45 10° W visible
29 May 8.2 22:41:01 10° NNW 22:44:57 23° WNW 22:49:07 10° SW visible
30 May 7.1 21:57:15 10° N 22:02:10 47° W 22:07:25 10° SSW visible
31 May 8.7 22:55:06 10° NW 22:58:12 16° WNW 23:01:23 10° WSW visible
